EW9869 Weather Reports


Display with metric or nautical units.
time (UTC)temp
F
wind
direction
speed
MPH
gust
MPH
rain 1hr
in
rain 24hr
in
rain mn
in
humidity
%
barometer
mb
20190720194509 74 317 3.0 12.0 0.00 0.00 0.00 24 1010.4
20190720193003 74 227 3.0 12.0 0.00 0.00 0.00 22 1010.6
20190720191502 74 273 6.0 10.0 0.00 0.00 0.00 23 1010.6
20190720190321 75 198 2.0 9.0 0.00 0.00 0.00 20 1010.7
20190720184634 75 227 2.0 7.0 0.00 0.00 0.00 25 1010.9
20190720183208 73 261 5.0 10.0 0.00 0.00 0.00 23 1010.8
20190720181724 75 248 3.0 7.0 0.00 0.00 0.00 23 1010.8
20190720180125 73 192 1.0 9.0 0.00 0.00 0.00 21 1010.9
20190720174624 72 250 2.0 11.0 0.00 0.00 0.00 22 1011.0
20190720173146 72 161 5.0 11.0 0.00 0.00 0.00 21 1010.9
20190720171645 72 201 4.0 14.0 0.00 0.00 0.00 22 1010.9
20190720170133 71 212 1.0 9.0 0.00 0.00 0.00 23 1010.7
20190720164619 71 167 4.0 9.0 0.00 0.00 0.00 23 1010.6
20190720163137 70 203 2.0 8.0 0.00 0.00 0.00 22 1010.5
20190720161619 71 273 3.0 7.0 0.00 0.00 0.00 22 1010.5
20190720160133 70 267 3.0 8.0 0.00 0.00 0.00 25 1010.3
20190720154548 69 257 3.0 7.0 0.00 0.00 0.00 22 1010.4
20190720153050 68 256 1.0 6.0 0.00 0.00 0.00 24 1010.3
20190720151638 66 256 1.0 8.0 0.00 0.00 0.00 25 1010.4
20190720150101 65 254 3.0 8.0 0.00 0.00 0.00 24 1010.3
20190720144657 64 253 1.0 8.0 0.00 0.00 0.00 26 1010.3
20190720143053 64 253 2.0 4.0 0.00 0.00 0.00 26 1010.0
20190720141523 63 252 1.0 7.0 0.00 0.00 0.00 29 1010.0
20190720140043 61 248 0.0 4.0 0.00 0.00 0.00 28 1009.8
20190720134532 60 248 0.0 2.0 0.00 0.00 0.00 29 1009.8
20190720133013 59 248 0.0 4.0 0.00 0.00 0.00 28 1009.6
20190720131510 59 248 0.0 3.0 0.00 0.00 0.00 27 1009.5
20190720130008 59 248 0.0 3.0 0.00 0.00 0.00 27 1009.4
20190720124507 58 246 1.0 3.0 0.00 0.00 0.00 31 1009.2
20190720123359 55 246 2.0 5.0 0.00 0.00 0.00 39 1009.2
20190720121712 53 246 1.0 2.0 0.00 0.00 0.00 49 1009.1
20190720120145 52 246 0.0 1.0 0.00 0.00 0.00 48 1009.2
20190720114629 52 246 0.0 1.0 0.00 0.00 0.00 45 1009.3
20190720113137 52 246 0.0 3.0 0.00 0.00 0.00 44 1009.3
20190720111638 52 246 1.0 3.0 0.00 0.00 0.00 44 1009.3
20190720110152 53 246 0.0 2.0 0.00 0.00 0.00 44 1009.4
20190720104623 54 246 0.0 3.0 0.00 0.00 0.00 42 1009.5
20190720103147 54 246 0.0 1.0 0.00 0.00 0.00 41 1009.6
20190720100146 53 246 0.0 2.0 0.00 0.00 0.00 43 1009.4
20190720094616 53 246 1.0 3.0 0.00 0.00 0.00 45 1009.4
20190720093211 51 246 2.0 3.0 0.00 0.00 0.00 50 1009.5
20190720091621 51 246 1.0 3.0 0.00 0.00 0.00 53 1009.6
20190720090140 51 246 1.0 2.0 0.00 0.00 0.00 55 1009.9
20190720084704 51 246 0.0 3.0 0.00 0.00 0.00 53 1009.9
20190720083116 51 246 0.0 1.0 0.00 0.00 0.00 50 1010.0
20190720081549 51 246 0.0 0.0 0.00 0.00 0.00 50 1010.0
20190720080155 52 246 0.0 0.0 0.00 0.00 0.00 49 1010.1
20190720074720 52 246 0.0 2.0 0.00 0.00 0.00 49 1010.0
20190720073050 53 246 0.0 4.0 0.00 0.00 0.00 47 1009.9
20190720071607 53 246 0.0 4.0 0.00 0.00 0.00 46 1010.1
20190720070126 54 246 0.0 2.0 0.00 0.00 0.00 45 1010.2
20190720064549 54 246 0.0 0.0 0.00 0.00 0.00 44 1010.2
20190720063100 54 246 0.0 0.0 0.00 0.00 0.00 43 1010.4
20190720061557 55 246 0.0 0.0 0.00 0.00 0.00 43 1010.4
20190720060054 55 246 0.0 1.0 0.00 0.00 0.00 42 1010.3
20190720054550 55 246 0.0 1.0 0.00 0.00 0.00 41 1010.4
20190720053146 56 246 0.0 2.0 0.00 0.00 0.00 42 1010.5
20190720051547 56 246 1.0 3.0 0.00 0.00 0.00 42 1010.4
20190720050031 57 246 1.0 3.0 0.00 0.00 0.00 42 1010.5
20190720044605 57 246 1.0 3.0 0.00 0.00 0.00 42 1010.3
20190720043048 58 246 1.0 3.0 0.00 0.00 0.00 41 1010.1
20190720041539 59 246 1.0 3.0 0.00 0.00 0.00 40 1009.9
20190720040134 59 246 0.0 3.0 0.00 0.00 0.00 40 1009.7
20190720034548 61 246 1.0 3.0 0.00 0.00 0.00 40 1009.5
20190720033049 62 246 1.0 3.0 0.00 0.00 0.00 41 1009.3
20190720031547 64 246 1.0 3.0 0.00 0.00 0.00 41 1009.2
20190720030033 65 247 2.0 4.0 0.00 0.00 0.00 41 1009.1
20190720024539 66 250 1.0 5.0 0.00 0.00 0.00 41 1009.1
20190720023049 67 250 1.0 4.0 0.00 0.00 0.00 40 1009.2
20190720021540 68 243 3.0 7.0 0.00 0.00 0.00 35 1009.2
20190720020039 69 157 2.0 6.0 0.00 0.00 0.00 32 1009.2
20190720014516 69 156 1.0 8.0 0.00 0.00 0.00 34 1009.2
20190720013045 70 198 4.0 8.0 0.00 0.00 0.00 36 1009.2
20190720011511 70 177 6.0 10.0 0.00 0.00 0.00 34 1009.3
20190720010012 71 163 4.0 9.0 0.00 0.00 0.00 34 1009.4
20190720004511 72 166 4.0 8.0 0.00 0.00 0.00 31 1009.6
20190720003032 72 167 3.0 9.0 0.00 0.00 0.00 27 1009.6
20190720001520 73 149 5.0 13.0 0.00 0.00 0.00 29 1009.5
20190720000019 73 171 4.0 9.0 0.00 0.00 0.00 28 1009.7
20190719234535 73 123 4.0 10.0 0.00 0.00 0.00 29 1009.8
20190719233007 73 191 4.0 9.0 0.00 0.00 0.00 28 1009.8
20190719231509 74 191 4.0 9.0 0.00 0.00 0.00 27 1009.9
20190719230003 74 153 2.0 9.0 0.00 0.00 0.00 27 1010.0
20190719224504 74 134 6.0 12.0 0.00 0.00 0.00 29 1010.1
20190719223005 75 186 3.0 12.0 0.00 0.00 0.00 25 1010.2
20190719221806 74 178 5.0 15.0 0.00 0.00 0.00 24 1010.2
20190719220204 74 205 2.0 11.0 0.00 0.00 0.00 24 1010.3
20190719214638 75 164 5.0 10.0 0.00 0.00 0.00 25 1010.2
20190719213237 74 186 4.0 9.0 0.00 0.00 0.00 25 1010.2
20190719211813 74 204 6.0 11.0 0.00 0.00 0.00 26 1010.2
20190719210121 73 184 5.0 12.0 0.00 0.00 0.00 26 1010.3
20190719204709 73 219 4.0 10.0 0.00 0.00 0.00 28 1010.3
20190719203139 73 171 3.0 10.0 0.00 0.00 0.00 28 1010.4
20190719201608 71 263 1.0 10.0 0.00 0.00 0.00 29 1010.5
20190719200210 71 237 6.0 14.0 0.00 0.00 0.00 30 1010.6